METEOR 2-11 DEB, 60006

Orbit data source: Space-Track

METEOR 2-11 DEB, 60006 is space debris in LEO originally from a launch on Thu, 05 Jul 1984 UTC launched from the Plesetsk Missile And Space Complex (PKMTR). Debris objects in space refer to the collection of defunct objects orbiting the Earth. Examples of debris include non-operational satellites, rocket bodies, and fragments generated from explosions, collisions, or faulty payload assembly.

Loading next visibility...
Identifier
60006, 1984-072AB
Orbit
LEO
Country
Flag of CISCIS
Related business
Manufacturer
Unknown
Mission
Spacecraft
Bus & Motor
Unknown
Mass
Unknown
Launch date (UTC)
1984-07-05 (42 years ago)
Launch vehicle
Unknown
Launch site
Plesetsk Missile And Space Complex (PKMTR)
Object type
Payload
Rocket body
Debris
Shape & HBR
Unknown shape, 0.1 m
Radar Cross Section
Small (<0.1 m²)

Expand to show TLE details & history
Last TLE update: 1 month ago

TLE from 1 month ago
0 METEOR 2-11 DEB
1 60006U 84072AB  26179.22527552  .00001660  00000-0  11365-2 0  9999
2 60006  82.5197 359.2075 0018181 229.9685 129.9889 13.99056985432243
Epoch: 2026-06-28T05:24Z
TLE epoch observation values (Epoch: 2026-06-28T05:24:23.804Z)
Latitude
-0.00004°
Longitude
1.78018°
Altitude
908.5 km
Speed
7.393 km/s
True Right ascension
23h 56m 49s
True Declination
0° 00' 00"
Sunlit
Object was in daylight at epoch
Visualization orbit readout
Latitude
Unknown
Longitude
Unknown
Altitude
Unknown
Speed
Unknown
Apparent Right ascension
Unknown
Apparent Declination
Unknown
Sunlit
N/A
Visualization observer readout
Local Sidereal Time
06:25:03
Azimuth
Unknown
Elevation
Unknown
Doppler factor
Unknown
Orbital elements
Apogee altitude
907.417 km
Perigee altitude
880.973 km
Semi-major axis
7,272.332 km
Eccentricity
0.00182
Inclination
82.5197°
RAAN
359.2075°
Arg. of periapsis
229.9685°
True anomaly
130.14829°
Mean anomaly
129.9889°
Eccentric anomaly
130.06862°
Mean motion
3.49971 °/min
Orbital period
102.87 mins
BSTAR
0.0011365
Loading maneuver chart data...
Computing Atmospheric mass density...
Loading historical data...
Loading historical data...
Loading historical data...
Loading historical data...
Loading historical data...
Loading historical data...
Loading historical data...

Documentation

Showing up to 5 results
|